Weather History for KRCM - July, 2014

Change the Weather History Date:

Friday, July 4, 2014

  Actual Average (KSZL) Record (KSZL)
Temperature  
Mean Temperature 66 °F -  
Max Temperature 78 °F 86 °F 100 °F (2012)
Min Temperature 55 °F 67 °F 55 °F (2014)
Cooling Degree Days 2    
Growing Degree Days 16 (Base 50)    
Moisture  
Dew Point 57 °F    
Average Humidity 68    
Maximum Humidity 100    
Minimum Humidity 44    
Precipitation  
Precipitation 0.00 in - - ()
Sea Level Pressure  
Sea Level Pressure 30.24 in    
Wind  
Wind Speed 3 mph (ESE)    
Max Wind Speed 10 mph    
Max Gust Speed -    
Visibility 10 miles    
Events      
Averages and records for this station are not official NWS values.
T = Trace of Precipitation, MM = Missing Value Source: NWS Daily Summary

Daily Weather History Graph

Daily Weather History Graph

Search for Another Location

Airport or City:

Trip Planner

Search our weather history database for the weather conditions in past years. The results will help you decide how hot, cold, wet, or windy it might be!

Date:

Astronomy

Jul. 04, 2014 Rise Set
Actual Time 5:55 AM CDT 8:43 PM CDT
Civil Twilight 5:23 AM CDT 9:15 PM CDT
Nautical Twilight 4:43 AM CDT 9:55 PM CDT
Astronomical Twilight 3:58 AM CDT 10:40 PM CDT
Moon 12:47 PM CDT (7/4) 12:10 AM CDT (7/4)
Length of Visible Light 15h 51m
Length of Day
14h 48m
Waxing Crescent, 42% of the Moon is Illuminated
Jul 4
Waxing Crescent
Jul 5
First Quarter
Jul 12
Full
Jul 18
Last Quarter
Jul 26
New

Hourly Weather History & Observations

Time (CDT) Temp. Dew Point Humidity Pressure Visibility Wind Dir Wind Speed Gust Speed Precip Events Conditions
12:15 AM 62.6 °F 57.2 °F 82% 30.24 in 10.0 mi South 3.5 mph - N/A   Clear
12:35 AM 60.8 °F 55.4 °F 82% 30.24 in 10.0 mi Calm Calm - N/A   Clear
12:55 AM 59.0 °F 55.4 °F 88% 30.25 in 10.0 mi Calm Calm - N/A   Clear
1:15 AM 60.8 °F 55.4 °F 82% 30.25 in 10.0 mi Calm Calm - N/A   Clear
1:35 AM 59.0 °F 55.4 °F 88% 30.25 in 10.0 mi Calm Calm - N/A   Clear
1:55 AM 59.0 °F 57.2 °F 94% 30.25 in 10.0 mi Calm Calm - N/A   Clear
2:15 AM 59.0 °F 55.4 °F 88% 30.25 in 10.0 mi Calm Calm - N/A   Clear
2:35 AM 59.0 °F 55.4 °F 88% 30.25 in 10.0 mi Calm Calm - N/A   Clear
2:55 AM 57.2 °F 55.4 °F 94% 30.26 in 10.0 mi Calm Calm - N/A   Clear
3:15 AM 57.2 °F 55.4 °F 94% 30.26 in 10.0 mi Calm Calm - N/A   Clear
3:55 AM 55.4 °F 53.6 °F 94% 30.26 in 7.0 mi Calm Calm - N/A   Clear
4:15 AM 55.4 °F 53.6 °F 94% 30.26 in 10.0 mi Calm Calm - N/A   Clear
4:35 AM 55.4 °F 55.4 °F 100% 30.26 in 10.0 mi Calm Calm - N/A   Clear
4:55 AM 55.4 °F 53.6 °F 94% 30.26 in 10.0 mi Calm Calm - N/A   Clear
5:15 AM 55.4 °F 53.6 °F 94% 30.26 in 10.0 mi Calm Calm - N/A   Clear
5:35 AM 55.4 °F 55.4 °F 100% 30.27 in 10.0 mi Calm Calm - N/A   Clear
5:55 AM 55.4 °F 53.6 °F 94% 30.27 in 10.0 mi Calm Calm - N/A   Clear
6:35 AM 55.4 °F 53.6 °F 94% 30.28 in 7.0 mi Calm Calm - N/A   Clear
6:55 AM 57.2 °F 55.4 °F 94% 30.28 in 10.0 mi Calm Calm - N/A   Clear
7:35 AM 60.8 °F 57.2 °F 88% 30.29 in 10.0 mi Calm Calm - N/A   Clear
7:55 AM 62.6 °F 57.2 °F 82% 30.29 in 10.0 mi Calm Calm - N/A   Clear
8:15 AM 64.4 °F 59.0 °F 83% 30.29 in 10.0 mi Calm Calm - N/A   Clear
8:35 AM 66.2 °F 59.0 °F 78% 30.29 in 10.0 mi Calm Calm - N/A   Clear
8:55 AM 68.0 °F 59.0 °F 73% 30.30 in 10.0 mi Calm Calm - N/A   Clear
9:35 AM 71.6 °F 57.2 °F 60% 30.30 in 10.0 mi Calm Calm - N/A   Clear
9:55 AM 73.4 °F 59.0 °F 61% 30.29 in 10.0 mi East 5.8 mph - N/A   Clear
10:55 AM 77.0 °F 55.4 °F 47% 30.29 in 10.0 mi East 9.2 mph - N/A   Clear
11:15 AM 77.0 °F 55.4 °F 47% 30.29 in 10.0 mi SE 9.2 mph - N/A   Clear
11:35 AM 77.0 °F 55.4 °F 47% 30.29 in 10.0 mi East 6.9 mph - N/A   Clear
11:55 AM 77.0 °F 55.4 °F 47% 30.29 in 10.0 mi East 8.1 mph - N/A   Clear
12:15 PM 77.0 °F 55.4 °F 47% 30.28 in 10.0 mi East 9.2 mph - N/A   Clear
12:55 PM 78.8 °F 57.2 °F 47% 30.28 in 10.0 mi East 6.9 mph - N/A   Clear
1:35 PM 78.8 °F 57.2 °F 47% 30.27 in 10.0 mi ESE 8.1 mph - N/A   Clear
1:55 PM 78.8 °F 55.4 °F 44% 30.26 in 10.0 mi SE 4.6 mph - N/A   Clear
2:15 PM 78.8 °F 59.0 °F 51% 30.26 in 10.0 mi SE 10.4 mph - N/A   Clear
2:35 PM 78.8 °F 55.4 °F 44% 30.25 in 10.0 mi SE 9.2 mph - N/A   Clear
2:55 PM 78.8 °F 57.2 °F 47% 30.25 in 10.0 mi SE 8.1 mph - N/A   Clear
3:15 PM 78.8 °F 55.4 °F 44% 30.24 in 10.0 mi ESE 6.9 mph - N/A   Clear
3:55 PM 78.8 °F 57.2 °F 47% 30.24 in 10.0 mi ESE 8.1 mph - N/A   Clear
4:35 PM 78.8 °F 57.2 °F 47% 30.23 in 10.0 mi SSE 6.9 mph - N/A   Scattered Clouds
4:55 PM 78.8 °F 55.4 °F 44% 30.23 in 10.0 mi South 6.9 mph - N/A   Clear
5:15 PM 78.8 °F 59.0 °F 51% 30.22 in 10.0 mi SSE 6.9 mph - N/A   Clear
5:35 PM 78.8 °F 59.0 °F 51% 30.21 in 10.0 mi SE 6.9 mph - N/A   Clear
5:55 PM 78.8 °F 57.2 °F 47% 30.21 in 10.0 mi East 5.8 mph - N/A   Clear
6:15 PM 78.8 °F 59.0 °F 51% 30.21 in 10.0 mi SE 5.8 mph - N/A   Clear
6:35 PM 78.8 °F 57.2 °F 47% 30.21 in 10.0 mi ESE 6.9 mph - N/A   Clear
6:55 PM 78.8 °F 59.0 °F 51% 30.21 in 10.0 mi East 5.8 mph - N/A   Clear
7:15 PM 77.0 °F 59.0 °F 54% 30.20 in 10.0 mi ESE 5.8 mph - N/A   Clear
7:35 PM 77.0 °F 59.0 °F 54% 30.20 in 10.0 mi East 4.6 mph - N/A   Clear
7:55 PM 73.4 °F 59.0 °F 61% 30.20 in 10.0 mi East 4.6 mph - N/A   Clear
8:15 PM 73.4 °F 59.0 °F 61% 30.19 in 10.0 mi East 4.6 mph - N/A   Clear
8:35 PM 71.6 °F 59.0 °F 64% 30.18 in 10.0 mi East 5.8 mph - N/A   Clear
8:55 PM 71.6 °F 59.0 °F 64% 30.18 in 10.0 mi East 5.8 mph - N/A   Clear
9:15 PM 69.8 °F 59.0 °F 68% 30.18 in 10.0 mi East 5.8 mph - N/A   Clear
9:35 PM 69.8 °F 59.0 °F 68% 30.18 in 10.0 mi ESE 6.9 mph - N/A   Clear
9:55 PM 69.8 °F 59.0 °F 68% 30.20 in 10.0 mi ESE 6.9 mph - N/A   Clear
10:15 PM 69.8 °F 59.0 °F 68% 30.20 in 10.0 mi ESE 8.1 mph - N/A   Clear
10:55 PM 69.8 °F 59.0 °F 68% 30.20 in 10.0 mi ESE 5.8 mph - N/A   Clear
11:15 PM 68.0 °F 59.0 °F 73% 30.20 in 10.0 mi ESE 6.9 mph - N/A   Clear
11:35 PM 68.0 °F 59.0 °F 73% 30.19 in 10.0 mi ESE 6.9 mph - N/A   Clear
11:55 PM 68.0 °F 57.2 °F 68% 30.19 in 10.0 mi ESE 6.9 mph - N/A   Clear